Regional Weather Roundup
Issued by NWS

Home | Current Version | Previous Version | Graphics & Text | Print | Product List | Glossary On
Versions: 1 2 3 4 5 6 7 8 9 10 11 12 13 14 15 16 17 18 19 20 21 22 23 24 25 26 27 28 29 30 31 32 33 34 35 36 37 38 39 40 41 42 43 44 45 46 47 48 49 50
283
ASUS45 KBOU 231907
RWRCO

WEATHER ROUNDUP FOR COLORADO
NATIONAL WEATHER SERVICE DENVER/BOULDER CO
100 PM MDT TUE AUG 23 2016

NOTE: "FAIR" INDICATES FEW OR NO CLOUDS BELOW 12000 FEET WITH NO
SIGNIFICANT WEATHER AND/OR OBSTRUCTIONS TO VISIBILITY.

COZ001>005-013-030-031-232000-
...NORTHWEST COLORADO...

CITY           SKY/WX    TMP DP  RH WIND       PRES   REMARKS
CRAIG          FAIR      77  28  16 W6        30.18F
HAYDEN         FAIR      72  30  21 CALM      30.21F
MEEKER         FAIR      73  44  35 S8        30.22F
MOUNT WERNER   NOT AVBL
STEAMBOAT SPGS FAIR      72  40  31 CALM      30.23F
WALDEN         FAIR      70  30  23 S6G17     30.29F
$$

COZ006>008-011-232000-
...WEST CENTRAL VALLEYS...

CITY           SKY/WX    TMP DP  RH WIND       PRES   REMARKS
GRAND JUNCTION FAIR      73  47  39 CALM      30.16F
MONTROSE       FAIR      69  47  45 W3        30.24R
EAGLE          SUNNY     72  43  35 CALM      30.25F
RIFLE          FAIR      74  46  36 VRB3      30.19F
DELTA          FAIR      74  46  37 S6        30.19F
NUCLA          PTSUNNY   68  48  49 NW6       30.26F
$$

COZ017>023-064>068-232000-
...SOUTHWEST COLORADO...

CITY           SKY/WX    TMP DP  RH WIND       PRES   REMARKS
DURANGO        CLOUDY    70  46  42 S12       30.24F
CORTEZ         FAIR      76  47  35 W13       30.20F THUNDER
PAGOSA SPRINGS CLOUDY    68  42  39 S5        30.31F
TELLURIDE      CLOUDY    49  44  82 E12G17    30.44F
WOLF CREEK PAS PTSUNNY   46  41  81 SW13G23   30.58F THUNDER
$$

COZ009-010-012-014-032>034-037-058>063-232000-
...CENTRAL COLORADO...

CITY           SKY/WX    TMP DP  RH WIND       PRES   REMARKS
ASPEN          CLOUDY    68  38  33 N8        30.30F
BUENA VISTA    FAIR      69  33  26 NW17      30.28S
COPPER MTN     CLOUDY    54  34  47 CALM      30.59R
BERTHOUD PASS  CLOUDY    43  28  56 MISG      30.60S
COTTONWOOD PAS PTSUNNY   64  34  32 N3        30.42S
GUNNISON       FAIR      57  45  62 N6        30.36F
KREMMLING      FAIR      73  30  20 CALM      30.28F
LEADVILLE      FAIR      58  32  37 N9        30.42F
MONARCH PASS   CLOUDY    48  39  71 W14G22    30.66S
SALIDA         FAIR      75  38  27 S7        30.31F
SUNLIGHT       PTSUNNY   55  43  62 CALM      30.54S
WILKERSON PASS NOT AVBL
$$

COZ069>075-232000-
...SAN LUIS VALLEY/SANGRE DE CRISTO MOUNTAINS...

CITY           SKY/WX    TMP DP  RH WIND       PRES   REMARKS
ALAMOSA        PTSUNNY   69  41  36 CALM      30.28F
LA VETA PASS   FAIR      63  37  39 S9G16     30.44S
SAGUACHE       FAIR      70  43  37 W10       30.29F
$$

COZ035-036-038>040-232000-
...NORTHERN COLORADO FRONT RANGE...

CITY           SKY/WX    TMP DP  RH WIND       PRES   REMARKS
DENVER INTL AP PTSUNNY   83  33  16 N7        30.07S
DMNS CITY PARK   N/A     81  35  18 E5        30.06S
AURORA         PTSUNNY   82  34  17 N10       30.09R
FRONT RANGE AP PTSUNNY   86  32  14 N9        30.08S
ERIE MUNI ARPT FAIR      85  33  15 W8        30.05S
BOULDER MUN AP FAIR      82  36  18 W5        30.06S
CENTENNIAL     PTSUNNY   82  30  15 SE3       30.09F
BROOMFIELD     CLOUDY    82  34  17 W6        30.10F
FORT COLLINS   FAIR      84  39  20 S13       30.01R
LONGMONT       FAIR      86  38  17 E3        30.06S
$$

COZ041-046-047-076>085-087-088-232000-
...PIKES PEAK/PALMER DIVIDE AND SOUTHERN FOOTHILLS...

CITY           SKY/WX    TMP DP  RH WIND       PRES   REMARKS
COLO. SPRINGS  PTSUNNY   83  32  16 SE12      30.13F
A. F. ACADEMY  PTSUNNY   77  35  21 S12       30.14S
SCHRIEVER AFB  NOT AVBL
ELLICOTT       NOT AVBL
FALCON         FAIR      79  30  16 E9        30.19S
FORT CARSON    PTSUNNY   82  38  20 E5        30.10S
LIMON          FAIR      87  30  13 N14G25    30.07S
MONUMENT HILL  FAIR      75  32  20 E10       30.20S
TRINIDAD       FAIR      83  38  20 W5        30.10F
$$

COZ042>045-048>051-090-091-232000-
...NORTHEAST COLORADO...

CITY           SKY/WX    TMP DP  RH WIND       PRES   REMARKS
GREELEY ARPT   FAIR      84  37  18 N10       30.03S
AKRON          FAIR      89  28  11 N17G26    30.01S
BURLINGTON     FAIR      92  32  12 N16       29.96S
WRAY           FAIR      95  30  10 N12G24    29.93
STERLING       FAIR      90  34  13 N15       29.95S
HOLYOKE        FAIR      95  32  11 NW14G24   29.93R
FORT MORGAN    FAIR      90  26  10 NW14G23   30.01R
$$

COZ086-089-092>099-232000-
...SOUTHEAST COLORADO...

CITY           SKY/WX    TMP DP  RH WIND       PRES   REMARKS
PUEBLO         FAIR      91  41  17 SE10      30.01S
LA JUNTA       FAIR      90  41  18 SE3       29.99S
LAMAR          FAIR      94  45  18 W8        29.92F
SPRINGFIELD    NOT AVBL
$$




USA.gov is the U.S. government's official web portal to all federal, state and local government web resources and services.